Regional Weather Roundup
Issued by NWS

Home | Current Version | Previous Version | Text Only | Print | Product List | Glossary Off
Versions: 1 2 3 4 5 6 7 8 9 10 11 12 13 14 15 16 17 18 19 20 21 22 23 24 25 26 27 28 29 30 31 32 33 34 35 36 37 38 39 40 41 42 43 44 45 46 47 48 49 50

000
ASUS43 KLSX 261859
RWRMO

WEATHER SUMMARY FOR MISSOURI
NATIONAL WEATHER SERVICE SPRINGFIELD MO
200 PM CDT SUN APR 26 2015

NOTE: "FAIR" INDICATES FEW OR NO CLOUDS BELOW 12,000 FEET WITH NO
       SIGNIFICANT WEATHER AND/OR OBSTRUCTIONS TO VISIBILITY.
       CURRENT SKY AND/OR WEATHER CONDITIONS ARE NOT AVAILABLE FOR
       CHILLICOTHE AND FARMINGTON.

MOZ001>031-035>038-043-044-053-054-262000-
...NORTHERN AND WESTERN MISSOURI...

CITY           SKY/WX    TMP DP  RH WIND       PRES   REMARKS
KANSAS CTY INT PTSUNNY   56  44  64 NE14      29.97F
KANSAS C DTWN  CLOUDY    58  43  57 E15       29.97F
LEE`S SUMMIT   CLOUDY    56  44  64 NE9       29.97F
ST JOSEPH      SUNNY     60  41  49 E15       29.99F
CHILLICOTHE      N/A     62  39  42 NE8       30.01F
KIRKSVILLE     SUNNY     59  37  44 E12       30.01F

$$
MOZ066>068-077>081-088>096-101>105-262000-
...SOUTHWEST MISSOURI...

CITY           SKY/WX    TMP DP  RH WIND       PRES   REMARKS
SPRINGFIELD    CLOUDY    53  45  74 NE9       29.91S
JOPLIN         CLOUDY    56  49  77 NE12      29.90R

$$
MOZ032>034-039>042-045>050-055>058-069>072-262000-
...CENTRAL MISSOURI...

CITY           SKY/WX    TMP DP  RH WIND       PRES   REMARKS
COLUMBIA       SUNNY     61  40  45 NE13G21   29.96F
JEFFERSON CITY SUNNY     60  34  37 NE9       29.95S
ROLLA          PTSUNNY   58  43  57 NE9G21    29.91F
SEDALIA        MOSUNNY   61  45  55 NE9       29.96F
WHITEMAN AFB   PTSUNNY   58  45  60 NE12      29.95F
OSAGE BEACH    PTSUNNY   55  43  62 NE14      29.94S

$$
MOZ051-052-059>065-262000-
...EAST CENTRAL MISSOURI...

CITY           SKY/WX    TMP DP  RH WIND       PRES   REMARKS
ST LOUIS INTL  MOSUNNY   62  37  39 NE7       29.96S
SPIRIT OF STL  MOSUNNY   60  35  39 E13G22    29.94F
ST CHARLES     SUNNY     61  40  45 NE16G24   29.95F

$$
MOZ072>076-082>087-097>100-106>115-262000-
...SOUTH CENTRAL AND SOUTHEAST MISSOURI...

CITY           SKY/WX    TMP DP  RH WIND       PRES   REMARKS
CAPE GIRARDEAU MOSUNNY   61  47  59 NE8G17    29.88F
FARMINGTON     SUNNY     59  41  51 NE13      29.95S
POPLAR BLUFF   CLOUDY    59  46  62 NE10      29.88F
WEST PLAINS    CLOUDY    53  44  71 N10       29.91F

$$



USA.gov is the U.S. government's official web portal to all federal, state and local government web resources and services.